User: anonymous   Login
Location: *
(33.8649°S, 62.1526°E)
Time: 23:42:09
(UTC+00:00)
Language:

USA 229 - Orbit

View from above orbital plane
View from above orbital plane
View from above satellite
View from above satellite

Ground track
Ground track

The orbit data is extracted from the following two-line orbital elements,

1 37386U 11014A   21102.84012284 0.00000000  00000-0  00000-0 0    02
2 37386  63.4444  63.9689 0197972 357.9932   2.0068 13.40819863    07
Epoch (UTC): 12 April 2021 20:09:46
Eccentricity: 0.0197972
inclination: 63.4444°
perigee height: 958 km
apogee height: 1254 km
right ascension of ascending node: 63.9689°
argument of perigee: 357.9932°
revolutions per day: 13.40819863
mean anomaly at epoch: 2.0068°
orbit number at epoch: 0

The dashed part of the orbit path shows where the satellite is in the earth's shadow,  

DLR